DK4ARL Weather Reports


time (UTC)temp
F
wind
direction
speed
knots
gust
knots
rain 1hr
in
rain 24hr
in
rain mn
in
humidity
%
barometer
mb
20260507135253 55 0.0 0.0 0.00 0.25 0.00 978.5
20260507132315 55 0.0 0.0 0.00 0.25 0.00 978.5
20260507130827 54 0.0 0.0 0.00 0.25 0.00 978.4
20260507125339 54 0.0 0.0 0.00 0.25 0.00 978.4
20260507123852 55 0.0 0.0 0.00 0.25 0.00 978.3
20260507122406 54 0.0 0.0 0.00 0.25 0.00 978.2
20260507120919 53 0.0 0.0 0.00 0.25 0.00 978.2
20260507115444 53 0.0 0.0 0.00 0.25 0.00 978.2
20260507113959 54 0.0 0.0 0.00 0.25 0.00 978.2
20260507112514 54 0.0 0.0 0.00 0.25 0.00 978.1
20260507111031 53 0.0 0.0 0.00 0.25 0.00 978.1
20260507105548 54 0.0 0.0 0.00 0.25 0.00 978.0
20260507104106 54 0.0 0.0 0.00 0.25 0.00 978.0
20260507102624 52 0.0 0.0 0.00 0.25 0.00 977.9
20260507101143 52 0.0 0.0 0.00 0.25 0.00 977.8
20260507095701 53 0.0 0.0 0.00 0.25 0.00 977.7
20260507094221 52 0.0 0.0 0.00 0.25 0.00 977.6
20260507092740 51 0.0 0.0 0.00 0.25 0.00 977.4
20260507091300 51 0.0 0.0 0.00 0.25 0.00 977.3
20260507085820 52 0.0 0.0 0.00 0.25 0.00 977.2
20260507084340 51 0.0 0.0 0.00 0.25 0.00 977.0
20260507082901 50 0.0 0.0 0.00 0.25 0.00 976.9
20260507081422 49 0.0 0.0 0.00 0.25 0.00 976.7
20260507074509 49 0.0 0.0 0.00 0.24 0.00 976.4
20260507071553 49 0.0 0.0 0.00 0.24 0.00 976.1
20260507064636 49 0.0 0.0 0.00 0.24 0.00 975.8
20260507061721 49 0.0 0.0 0.01 0.24 0.00 975.5
20260507054813 49 0.0 0.0 0.00 0.23 0.00 975.1
20260507053335 49 0.0 0.0 0.00 0.23 0.00 975.0
20260507051853 49 0.0 0.0 0.02 0.23 0.00 974.8
20260507044939 49 0.0 0.0 0.01 0.22 0.00 974.4
20260507043509 49 0.0 0.0 0.00 0.21 0.00 974.3
20260507042027 49 0.0 0.0 0.02 0.21 0.00 974.1
20260507040549 50 0.0 0.0 0.02 0.21 0.00 974.0
20260507035110 50 0.0 0.0 0.01 0.20 0.00 973.9
20260507033633 50 0.0 0.0 0.00 0.19 0.00 973.8
20260507032158 50 0.0 0.0 0.02 0.18 0.00 973.7
20260507030721 50 0.0 0.0 0.02 0.18 0.00 973.6
20260507025243 50 0.0 0.0 0.01 0.17 0.00 973.6
20260507023806 51 0.0 0.0 0.00 0.16 0.00 973.5
20260507022326 50 0.0 0.0 0.02 0.16 0.00 973.5
20260507020848 50 0.0 0.0 0.01 0.15 0.00 973.5
20260507015410 50 0.0 0.0 0.01 0.15 0.00 973.4
20260507013933 50 0.0 0.0 0.00 0.14 0.00 973.4
20260507012500 50 0.0 0.0 0.00 0.14 0.00 973.4
20260507011021 50 0.0 0.0 0.00 0.14 0.00 973.4
20260507005543 50 0.0 0.0 0.00 0.14 0.00 973.4
20260507004104 51 0.0 0.0 0.00 0.14 0.00 973.4
20260506232752 52 0.0 0.0 0.00 0.14 0.00 973.3
20260506231310 52 0.0 0.0 0.00 0.14 0.00 973.2
20260506224352 52 0.0 0.0 0.00 0.13 0.00 973.0
20260506213038 52 0.0 0.0 0.04 0.09 0.00 972.6
20260506204627 53 0.0 0.0 0.00 0.06 0.00 972.2
20260506203147 53 0.0 0.0 0.03 0.05 0.00 972.1
20260506201706 54 0.0 0.0 0.02 0.04 0.00 972.0
20260506193253 55 0.0 0.0 0.00 0.02 0.00 971.4
20260506191819 55 0.0 0.0 0.00 0.01 0.00 971.2
20260506184845 55 0.0 0.0 0.00 0.01 0.00 970.9
20260506180427 55 0.0 0.0 0.00 0.00 0.00 970.6
20260506170521 55 0.0 0.0 0.00 0.02 0.00 970.4
20260506163542 57 0.0 0.0 0.00 0.02 0.00 970.2
20260506162047 57 0.0 0.0 0.00 0.02 0.00 970.1
20260506153612 57 0.0 0.0 0.00 0.02 0.00 969.8
20260506150623 57 0.0 0.0 0.00 0.03 0.00 969.6
20260506145127 58 0.0 0.0 0.00 0.02 0.00 969.4
20260506140626 65 0.0 0.0 0.00 0.03 0.00 969.0